When you browse on this site, cookies collect data to enhance your experience and personalize the content and advertising you see.
Visit our Privacy Policy to learn more. By continuing to use the site, you agree to this use of cookies and data.
  • In Sweden
  • List of Countries
  • For 7 days
  • Water Temperature
  • Weather Map
  • Weather Widgets
  • user-avatar
    Login

    Hourly Weather Téglás

    Today, 25 February, Tuesday

    Time Temperature Precipitation Wind Pressure Humidity
    00:00 +3°C° 0 mm 4 mps 751 mmHg 75%
    01:00 +2°C° 0 mm 5 mps 751 mmHg 71%
    02:00 +3°C° 0 mm 5 mps 750 mmHg 69%
    03:00 +3°C° 0 mm 5 mps 749 mmHg 68%
    04:00 +3°C° 0 mm 6 mps 749 mmHg 66%
    05:00 +3°C° 0 mm 6 mps 748 mmHg 66%
    06:00 +2°C° 0 mm 6 mps 748 mmHg 66%
    07:00 +2°C° 0 mm 6 mps 748 mmHg 66%
    08:00 +3°C° 0 mm 6 mps 748 mmHg 62%
    09:00 +4°C° 0 mm 6 mps 747 mmHg 58%
    10:00 +5°C° 0 mm 6 mps 747 mmHg 54%
    11:00 +7°C° 0 mm 6 mps 746 mmHg 54%
    12:00 +9°C° 0 mm 5 mps 746 mmHg 54%
    13:00 +11°C° 0 mm 4 mps 745 mmHg 54%
    14:00 +11°C° 0 mm 4 mps 744 mmHg 57%
    15:00 +11°C° 0 mm 4 mps 744 mmHg 60%
    16:00 +11°C° 0 mm 3 mps 743 mmHg 63%
    17:00 +10°C° 0 mm 4 mps 743 mmHg 67%
    18:00 +10°C° 0 mm 4 mps 743 mmHg 72%
    19:00 +8°C° 0 mm 4 mps 743 mmHg 76%
    20:00 +8°C° 0.1 mm 5 mps 742 mmHg 77%
    21:00 +8°C° 0.1 mm 5 mps 742 mmHg 77%
    22:00 +8°C° 0.1 mm 5 mps 741 mmHg 78%
    23:00 +8°C° 0 mm 5 mps 741 mmHg 79%

    Tomorrow, 26 February, Wednesday

    Time Temperature Precipitation Wind Pressure Humidity
    00:00 +8°C° 0 mm 5 mps 740 mmHg 80%
    01:00 +7°C° 0 mm 5 mps 740 mmHg 80%
    02:00 +7°C° 0 mm 5 mps 739 mmHg 82%
    03:00 +7°C° 0 mm 4 mps 739 mmHg 85%
    04:00 +7°C° 0 mm 4 mps 738 mmHg 87%
    05:00 +7°C° 0.7 mm 4 mps 738 mmHg 88%
    06:00 +7°C° 0.7 mm 4 mps 737 mmHg 89%
    07:00 +7°C° 0.7 mm 4 mps 737 mmHg 91%
    08:00 +7°C° 0.6 mm 5 mps 736 mmHg 87%
    09:00 +8°C° 0.6 mm 5 mps 736 mmHg 83%
    10:00 +8°C° 0.6 mm 5 mps 735 mmHg 79%
    11:00 +8°C° 0.6 mm 5 mps 735 mmHg 81%
    12:00 +7°C° 0.6 mm 5 mps 734 mmHg 83%
    13:00 +7°C° 0.6 mm 4 mps 734 mmHg 85%
    14:00 +7°C° 0.7 mm 4 mps 734 mmHg 85%
    15:00 +7°C° 0.7 mm 4 mps 733 mmHg 84%
    16:00 +7°C° 0.7 mm 4 mps 733 mmHg 83%
    17:00 +7°C° 0.1 mm 4 mps 734 mmHg 82%
    18:00 +7°C° 0.1 mm 3 mps 734 mmHg 81%
    19:00 +7°C° 0.1 mm 3 mps 735 mmHg 80%
    20:00 +5°C° 0.1 mm 4 mps 735 mmHg 82%
    21:00 +5°C° 0.1 mm 4 mps 736 mmHg 84%
    22:00 +4°C° 0.1 mm 4 mps 736 mmHg 86%
    23:00 +4°C° 0.2 mm 4 mps 736 mmHg 84%

    Day after tomorrow, 27 February, Thursday

    Time Temperature Precipitation Wind Pressure Humidity
    00:00 +4°C° 0.2 mm 3 mps 737 mmHg 82%
    01:00 +4°C° 0.2 mm 3 mps 737 mmHg 81%
    02:00 +3°C° 0 mm 3 mps 737 mmHg 82%
    03:00 +3°C° 0 mm 3 mps 737 mmHg 82%
    04:00 +3°C° 0 mm 3 mps 737 mmHg 83%
    05:00 +2°C° 0 mm 3 mps 738 mmHg 83%
    06:00 +2°C° 0 mm 3 mps 739 mmHg 83%
    07:00 +2°C° 0 mm 3 mps 740 mmHg 83%
    08:00 +3°C° 0 mm 3 mps 740 mmHg 76%
    09:00 +4°C° 0 mm 3 mps 741 mmHg 69%
    10:00 +5°C° 0 mm 3 mps 741 mmHg 62%
    11:00 +7°C° 0 mm 3 mps 742 mmHg 57%
    12:00 +6°C° 0 mm 4 mps 742 mmHg 52%
    13:00 +7°C° 0 mm 4 mps 742 mmHg 47%
    14:00 +7°C° 0 mm 4 mps 742 mmHg 47%
    15:00 +7°C° 0 mm 4 mps 742 mmHg 47%
    16:00 +7°C° 0 mm 4 mps 742 mmHg 47%
    17:00 +5°C° 0 mm 4 mps 743 mmHg 54%
    18:00 +4°C° 0 mm 4 mps 743 mmHg 61%
    19:00 +3°C° 0 mm 4 mps 743 mmHg 68%
    20:00 +3°C° 0 mm 4 mps 743 mmHg 70%
    21:00 +1°C° 0 mm 4 mps 743 mmHg 72%
    22:00 +1°C° 0 mm 4 mps 743 mmHg 74%
    23:00 +1°C° 0 mm 5 mps 742 mmHg 73%

    28 February, Friday

    Time Temperature Precipitation Wind Pressure Humidity
    00:00 +1°C° 0 mm 5 mps 741 mmHg 71%
    01:00 +1°C° 0 mm 6 mps 740 mmHg 69%
    02:00 0°C° 0.6 mm 8 mps 740 mmHg 77%
    03:00 -1°C° 0.6 mm 9 mps 739 mmHg 85%
    04:00 -2°C° 0.6 mm 10 mps 739 mmHg 93%
    05:00 -2°C° 0.6 mm 10 mps 739 mmHg 93%
    06:00 -1°C° 0.6 mm 9 mps 738 mmHg 93%
    07:00 -1°C° 0.6 mm 9 mps 738 mmHg 93%
    08:00 0°C° 0.6 mm 9 mps 738 mmHg 87%
    09:00 +1°C° 0.6 mm 9 mps 738 mmHg 82%
    10:00 +2°C° 0.6 mm 9 mps 738 mmHg 76%
    11:00 +2°C° 0.1 mm 9 mps 738 mmHg 73%
    12:00 +2°C° 0.1 mm 9 mps 739 mmHg 71%
    13:00 +3°C° 0.1 mm 9 mps 739 mmHg 68%
    14:00 +4°C° 0.1 mm 8 mps 740 mmHg 65%
    15:00 +4°C° 0.1 mm 8 mps 741 mmHg 62%
    16:00 +5°C° 0.1 mm 8 mps 742 mmHg 58%
    17:00 +4°C° 0 mm 7 mps 743 mmHg 61%
    18:00 +3°C° 0 mm 6 mps 744 mmHg 64%
    19:00 +2°C° 0 mm 5 mps 746 mmHg 66%
    20:00 +1°C° 0 mm 5 mps 746 mmHg 68%
    21:00 +1°C° 0 mm 4 mps 747 mmHg 69%
    22:00 0°C° 0 mm 4 mps 748 mmHg 70%
    23:00 0°C° 0 mm 4 mps 749 mmHg 72%

    29 February, Saturday

    Time Temperature Precipitation Wind Pressure Humidity
    00:00 0°C° 0 mm 3 mps 749 mmHg 75%
    01:00 0°C° 0 mm 3 mps 749 mmHg 77%
    02:00 0°C° 0 mm 3 mps 749 mmHg 79%
    03:00 -1°C° 0 mm 3 mps 750 mmHg 81%
    04:00 -1°C° 0 mm 3 mps 750 mmHg 83%
    05:00 -1°C° 0 mm 3 mps 750 mmHg 84%
    06:00 -1°C° 0 mm 2 mps 750 mmHg 85%
    07:00 -1°C° 0 mm 2 mps 751 mmHg 85%
    08:00 +1°C° 0 mm 2 mps 751 mmHg 79%
    09:00 +3°C° 0 mm 2 mps 751 mmHg 72%
    10:00 +4°C° 0 mm 2 mps 751 mmHg 65%
    11:00 +5°C° 0 mm 2 mps 751 mmHg 61%
    12:00 +6°C° 0 mm 2 mps 751 mmHg 56%
    13:00 +7°C° 0 mm 2 mps 751 mmHg 52%
    14:00 +7°C° 0 mm 2 mps 750 mmHg 52%
    15:00 +7°C° 0 mm 2 mps 750 mmHg 52%
    16:00 +8°C° 0 mm 1 mps 750 mmHg 52%
    17:00 +6°C° 0 mm 2 mps 750 mmHg 57%
    18:00 +5°C° 0 mm 2 mps 750 mmHg 62%
    19:00 +4°C° 0 mm 2 mps 750 mmHg 67%
    20:00 +3°C° 0 mm 3 mps 750 mmHg 69%
    21:00 +1°C° 0 mm 4 mps 750 mmHg 71%
    22:00 +1°C° 0 mm 4 mps 750 mmHg 72%
    23:00 +1°C° 0 mm 4 mps 749 mmHg 71%

    1 March, Sunday

    Time Temperature Precipitation Wind Pressure Humidity
    00:00 +1°C° 0 mm 5 mps 749 mmHg 70%
    01:00 +1°C° 0 mm 5 mps 749 mmHg 69%
    02:00 +1°C° 0 mm 4 mps 748 mmHg 68%
    03:00 +1°C° 0 mm 4 mps 748 mmHg 68%
    04:00 +1°C° 0 mm 4 mps 748 mmHg 67%
    05:00 +2°C° 0 mm 3 mps 747 mmHg 68%
    06:00 +2°C° 0 mm 3 mps 747 mmHg 69%
    07:00 +3°C° 0 mm 2 mps 747 mmHg 71%
    08:00 +2°C° 0.3 mm 3 mps 747 mmHg 75%
    09:00 +2°C° 0.3 mm 3 mps 747 mmHg 78%
    10:00 +1°C° 0.3 mm 4 mps 747 mmHg 82%
    11:00 +2°C° 0.2 mm 3 mps 747 mmHg 84%
    12:00 +3°C° 0.2 mm 3 mps 747 mmHg 85%
    13:00 +4°C° 0.2 mm 2 mps 747 mmHg 87%
    14:00 +4°C° 0 mm 2 mps 747 mmHg 87%
    15:00 +4°C° 0 mm 2 mps 747 mmHg 87%
    16:00 +5°C° 0 mm 1 mps 746 mmHg 87%
    17:00 +4°C° 0 mm 2 mps 746 mmHg 88%
    18:00 +4°C° 0 mm 2 mps 746 mmHg 89%
    19:00 +4°C° 0 mm 2 mps 746 mmHg 89%
    20:00 +4°C° 0 mm 2 mps 746 mmHg 89%
    21:00 +4°C° 0 mm 2 mps 746 mmHg 89%
    22:00 +4°C° 0 mm 2 mps 746 mmHg 89%
    23:00 +4°C° 0.5 mm 2 mps 745 mmHg 90%
    Show more